Location: Home
(42.5358°N, 72.7383°W)
Time: 00:42:08
(UTC-04:00)

DELTA 1 DEB - Pass Details

Date: 30 June 2022
Orbit: 600 x 774 km, 98.5° (Epoch: 16 August)

Event Time Altitude Azimuth Distance (km) Brightness Sun altitude
Exits shadow 21:16:01 - 106° (ESE) 2,649 ? -7.3°
Reaches altitude 10° 21:17:24 10° 94° (E) 2,299 ? -7.4°
Maximum altitude 21:20:11 15° 61° (ENE) 1,955 ? -7.8°
Drops below altitude 10° 21:22:57 10° 27° (NNE) 2,266 ? -8.2°
Sets 21:26:07 0° 5° (N) 3,163 ? -8.6°
